Imperial, NE

3:01 AM MDT on July 21, 2017 (GMT -0600)
Imperial Municipal

Weather History for KIML - March, 2014

Change the Weather History Date:

Wednesday, March 12, 2014

  Actual Average Record
Temperature  
Mean Temperature 41 °F 39 °F  
Max Temperature 54 °F 53 °F 76 °F (1995)
Min Temperature 27 °F 25 °F -4 °F (1906)
Degree Days  
Heating Degree Days 24 26  
Month to date heating degree days 349 334  
Cooling Degree Days 0 0  
Month to date cooling degree days 0 0  
Year to date cooling degree days 0 0  
Moisture  
Dew Point 20 °F    
Average Humidity 51    
Maximum Humidity 81    
Minimum Humidity 20    
Precipitation  
Precipitation 0.00 in 0.03 in 0.86 in (1927)
Sea Level Pressure  
Sea Level Pressure 30.28 in    
Wind  
Wind Speed 12 mph (WNW)    
Max Wind Speed 21 mph    
Max Gust Speed 29 mph    
Visibility 10 miles    
Events      
T = Trace of Precipitation, MM = Missing Value Source: NWS Daily Summary

Daily Weather History Graph

Daily Weather History Graph

Search for Another Location

Airport or City:

Trip Planner

Search our weather history database for the weather conditions in past years. The results will help you decide how hot, cold, wet, or windy it might be!

Date:

Astronomy

Mar. 12, 2014 Rise Set
Actual Time 7:02 AM MDT 6:50 PM MDT
Civil Twilight 6:35 AM MDT 7:17 PM MDT
Nautical Twilight 6:04 AM MDT 7:48 PM MDT
Astronomical Twilight 5:32 AM MDT 8:21 PM MDT
Moon 3:21 PM MDT (3/12) 4:36 AM MDT (3/12)
Length of Visible Light 12h 41m
Length of Day
11h 47m
Waxing Gibbous, 86% of the Moon is Illuminated
Mar 12
Waxing Gibbous
Mar 16
Full
Mar 23
Last Quarter
Mar 30
New
Apr 7
First Quarter

Hourly Weather History & Observations

Time (MDT) Temp. Windchill Dew Point Humidity Pressure Visibility Wind Dir Wind Speed Gust Speed Precip Events Conditions
12:53 AM 28.0 °F 18.6 °F 21.9 °F 78% 30.35 in 10.0 mi NW 10.4 mph - N/A   Clear
1:53 AM 27.0 °F 18.0 °F 21.9 °F 81% 30.36 in 10.0 mi WNW 9.2 mph - N/A   Clear
2:53 AM 27.0 °F 17.3 °F 21.0 °F 78% 30.36 in 10.0 mi WNW 10.4 mph - N/A   Clear
3:53 AM 28.9 °F 17.7 °F 21.9 °F 75% 30.35 in 10.0 mi NW 15.0 mph - N/A   Clear
4:53 AM 28.0 °F 18.1 °F 21.9 °F 78% 30.34 in 10.0 mi WNW 11.5 mph - N/A   Unknown
5:53 AM 28.0 °F 17.5 °F 21.0 °F 75% 30.34 in 10.0 mi WNW 12.7 mph - N/A   Clear
6:53 AM 27.0 °F 16.7 °F 19.9 °F 75% 30.37 in 10.0 mi WNW 11.5 mph - N/A   Clear
7:53 AM 28.9 °F 18.2 °F 19.9 °F 69% 30.36 in 10.0 mi WNW 13.8 mph - N/A   Clear
8:53 AM 34.0 °F 24.6 °F 21.9 °F 61% 30.37 in 10.0 mi WNW 13.8 mph 21.9 mph N/A   Clear
9:53 AM 39.9 °F 32.5 °F 23.0 °F 51% 30.36 in 10.0 mi WNW 12.7 mph - N/A   Clear
10:53 AM 45.0 °F 39.3 °F 21.0 °F 39% 30.34 in 10.0 mi WNW 11.5 mph - N/A   Clear
11:53 AM 48.0 °F - 17.1 °F 29% 30.31 in 10.0 mi WNW 16.1 mph 24.2 mph N/A   Clear
12:53 PM 48.9 °F - 16.0 °F 27% 30.29 in 10.0 mi WNW 17.3 mph 24.2 mph N/A   Clear
1:53 PM 51.1 °F - 15.1 °F 24% 30.25 in 10.0 mi NNW 18.4 mph - N/A   Clear
2:53 PM 53.1 °F - 14.0 °F 21% 30.22 in 10.0 mi NW 18.4 mph 26.5 mph N/A   Clear
3:53 PM 53.1 °F - 15.1 °F 22% 30.20 in 10.0 mi NW 16.1 mph - N/A   Clear
4:53 PM 53.1 °F - 14.0 °F 21% 30.19 in 10.0 mi NW 12.7 mph - N/A   Clear
5:53 PM 52.0 °F - 16.0 °F 24% 30.19 in 10.0 mi NW 12.7 mph - N/A   Clear
6:53 PM 46.9 °F - 19.9 °F 34% 30.21 in 10.0 mi NW 6.9 mph - N/A   Clear
7:53 PM 42.1 °F 37.7 °F 21.0 °F 43% 30.21 in 10.0 mi WNW 6.9 mph - N/A   Clear
8:53 PM 39.0 °F 33.4 °F 21.0 °F 49% 30.21 in 10.0 mi West 8.1 mph - N/A   Clear
9:53 PM 36.0 °F 29.6 °F 21.9 °F 57% 30.21 in 10.0 mi West 8.1 mph - N/A   Clear
10:53 PM 33.1 °F 26.1 °F 23.0 °F 66% 30.20 in 10.0 mi WNW 8.1 mph - N/A   Unknown
11:53 PM 34.0 °F 27.2 °F 23.0 °F 64% 30.18 in 10.0 mi West 8.1 mph - N/A   Clear